sat.trackr.live / text

‹ back to catalog

STARLINK-36844

NORAD 68117 · 2026-044S

PAYLOAD ACTIVE UNKNOWN

§ Identity

Operator
Country
US
Launch date
2026-03-08
Launch site
AFWTR
Launch vehicle
Mass (kg)
RCS (m²)

Purposes: comms

External: N2YO · Heavens-Above · Gunter

§ Orbital elements

Epoch: 2026-05-25T03:44:18.096864Z

Period
93.91 min
Inclination
97.2840°
Eccentricity
0.0002375
Mean motion
15.33451457 rev/d
Perigee alt
463.9 km
Apogee alt
467.1 km
Semi-major
6,843.7 km
B*
4.9731e-4
RAAN
105.8150°
Arg perigee
98.6668°
Mean anomaly
261.4844°
Rev number
1,330

§ Raw data

STARLINK-368441 68117U 26044S   26145.15576501  .00016018  00000+0  49731-3 0  99992 68117  97.2840 105.8150 0002375  98.6668 261.4844 15.33451457 13309

JSON: /api/v1/satellites/68117 · /tle

For live sub-satellite position, see the globe view (requires WebGL).

§ Visibility from observer

Set your observer location to see the next 7 days of passes ≥ 10°. The values pass through the URL so the page stays shareable.

No JS? Fill the form by hand. The geolocation button needs JavaScript.